Regional Weather Roundup
Issued by NWS Grand Forks, ND

Home | Current Version | Previous Version | Graphics & Text | Print | Product List | Glossary On
Versions: 1 2 3 4 5 6 7 8 9 10 11 12 13 14 15 16 17 18 19 20 21 22 23 24 25 26 27 28 29 30 31 32 33 34 35 36 37 38 39 40 41 42 43 44 45 46 47 48 49 50
000
ASUS43 KFGF 230931
RWRFGF
PRAIRIE TO PINES  WEATHER ROUNDUP
NATIONAL WEATHER SERVICE EASTERN NORTH DAKOTA/GRAND FORKS ND
400 AM CDT SAT SEP 23 2017

 **SATELLITE DATA USED TO AUGMENT SKY COVER AT AUTOMATED STATIONS**
 *****  WEATHER ACROSS EASTERN NORTH DAKOTA  *****

CITY           SKY/WX    TMP DP  RH WIND       PRES   REMARKS
GRAND FORKS    CLOUDY    51  51 100 NW15      29.91S
GRAND FRKS AFB CLOUDY    50  48  93 N14       29.92F
DEVILS LAKE    CLOUDY    48  43  82 N16       29.99S
FARGO          CLOUDY    54  52  93 NW15      29.91R
WAHPETON ARPT  CLOUDY    54  50  87 NW13      29.91R
$$

 ***** WEATHER ACROSS CENTRAL AND WESTERN NORTH DAKOTA  *****

CITY           SKY/WX    TMP DP  RH WIND       PRES   REMARKS
BISMARCK       CLOUDY    49  47  93 NW12      30.01R
MINOT          CLOUDY    48  45  89 N6        30.05S
JAMESTOWN      CLOUDY    50  47  89 N14       29.98R
MINOT AFB      CLOUDY    47  44  91 N5        30.03S
GARRISON         N/A     45  45 100 N10       30.02F
WILLISTON      CLOUDY    44  42  93 N5        30.09R
DICKINSON      NOT AVBL
HETTINGER      CLOUDY    43  41  93 N7        30.05R
$$

 *****  OTHER AIRPORT OBSERVATIONS IN OUR AREA  *****

CITY           SKY/WX    TMP DP  RH WIND       PRES   REMARKS
WALHALLA       FAIR     N/A N/A N/A NW15G22   29.96R
GRAFTON AIRPOR CLOUDY    50  48  93 NW18G25   29.95R
VALLEY CITY AR   N/A     50  50 100 NW14      29.98S
CANDO          DRIZZLE   48  48 100 N8        30.03R
CAVALIER APRT  CLOUDY    50  46  87 NW15G23   29.94R
GWINNER        CLOUDY    54  50  87 N15       29.93R
ROLLA          CLOUDY    45  46 100 NW8       30.04R
 ***** THE ABOVE OBSERVATIONS ARE NON NWS ARE NOT QUALITY
       CONTROLLED AND MAY MIS-REPORT RAIN FOR SNOW...
$$

  *****  WEATHER ACROSS NORTHERN MINNESOTA  *****

CITY           SKY/WX    TMP DP  RH WIND       PRES   REMARKS
FLAG ISLAND    CLOUDY    55  54  94 NW10      29.79R
WARROAD        CLOUDY    54  50  87 W8        29.84R FOG
ROSEAU         CLOUDY    54  48  82 NW8       29.86R HAZE
HALLOCK          N/A     50  48  93 NW17G26   29.91R FOG
THF RVR FALLS  CLOUDY    52  50  93 NW15      29.90R
BAUDETTE       CLOUDY    59  59 100 NW14      29.78R
WASKISH        CLOUDY    63  61  94 SW17      29.83R
CROOKSTON      DRIZZLE   50  48  93 NW15G26   29.93R
STEPHEN NDAWN    N/A     48  48 100 NW15        N/A
$$
  *****  WEATHER ACROSS CENTRAL AND WEST MINNESOTA  *****

CITY           SKY/WX    TMP DP  RH WIND       PRES   REMARKS
FOSSTON        CLOUDY    54  52  94 W8        29.90R
BEMIDJI        CLOUDY    58  57  94 W13       29.86R
PARK RAPIDS    MOCLDY    59  57  93 NW8       29.85R
ELBOW LAKE     LGT RAIN  55  55  99 W7        29.90R
WADENA         RAIN      59  59 100 S7        29.88S
DETROIT LAKES  CLOUDY    54  52  94 NW10      29.90F
MOORHEAD       CLOUDY    54  52  94 NW10      29.94R
FERGUS FALLS   CLOUDY    55  55 100 N7        29.90R
MORRIS MN      CLOUDY    57  55  94 NW12      29.87R
STAPLES        LGT RAIN  64  63  94 CALM      29.86S
$$
  *****  WEATHER ELSEWHERE ACROSS MINNESOTA  *****

CITY           SKY/WX    TMP DP  RH WIND       PRES   REMARKS
DULUTH         FAIR      74  69  85 SW12      29.88R
INTRNTL FALLS  MOCLDY    67  65  93 CALM      29.74S
ELY            FAIR      72  66  83 S5        29.83R
CLOQUET        FAIR      75  66  73 SW8       29.88R
WHEATON        FAIR      55  54  94 NW9       29.92R THUNDER
BRAINERD       LGT RAIN  67  66  97 CALM      29.88R
HIBBING        TSTM      68  65  90 SW7G18    29.87R FOG
ALEXANDRIA     CLOUDY    61  60  97 N3        29.88S
SAINT CLOUD    FAIR      72  69  90 S6        29.86R
MINNEAPOLIS    MOCLDY    80  69  69 S12G20    29.87R
$$

  *****  WEATHER ACROSS SOUTH DAKOTA  *****

CITY           SKY/WX    TMP DP  RH WIND       PRES   REMARKS
SIOUX FALLS    FAIR      64  62  93 NW6       29.87R
BROOKINGS      MOCLDY    61  59  94 NW6       29.90R
WATERTOWN      CLOUDY    56  55  97 N14       29.90R
HURON          CLOUDY    54  52  93 N9        29.94F THUNDER
SISSETON         N/A     57  54  89 NW13      29.89R
ABERDEEN       RAIN      52  51  97 N10       29.98R
MITCHELL       CLOUDY    55  51  86 NW13G22   29.94R
PIERRE         MOCLDY    49  46  90 N12       29.95F
MOBRIDGE       CLOUDY    51  46  83 NE12      29.99R
RAPID CITY     NOT AVBL
$$

  *****  SOME WEATHER IN NEARBY STATES *****

CITY           SKY/WX    TMP DP  RH WIND       PRES   REMARKS
GLASGOW MT     MOCLDY    43  41  93 E5        30.07F
GREAT FALLS MT LGT RAIN  36  35  96 SW5       30.07F
CHEYENNE WY    FAIR      42  37  82 N7        30.00S
SCOTTSBLUFF NE FAIR      48  38  68 E6        30.00R
OMAHA NE       FAIR      73  67  81 SE8       29.91R
DES MOINES IA  FAIR      73  67  81 S7        29.95R
DAVENPORT IA   FAIR      69  63  81 SE7       30.03S
CHICAGO IL     FAIR      74  65  73 W3        30.03S
EAU CLAIRE WI  FAIR      70  65  84 S6        29.93R
LA CROSSE WI   FAIR      76  67  73 S8        29.94R
$$

  *****  SOME NATIONAL WEATHER *****

CITY           SKY/WX    TMP DP  RH WIND       PRES   REMARKS
LA GUARDIA NY  FAIR      71  57  61 N12       29.98R
RALEIGH NC     FAIR      63  63 100 CALM      30.03S
ATLANTA GA     FAIR      72  67  84 NE6       30.03S
NEW ORLEANS LA FAIR      73  73 100 W3        29.92
OKLAHOMA CITY  FAIR      67  64  90 S8        29.94S
ALBUQUERQUE NM CLOUDY    67  44  43 SE6       29.90S
SALT LAKE CITY FAIR      43  39  86 N3        29.96S
LOS ANGELES CA FAIR      61  55  81 W5        29.81S
BOISE ID       FAIR      38  35  89 CALM      30.01S
SEATTLE WA     CLOUDY    56  51  84 S6        30.05S
$$

*** WEATHER ACROSS MANITOBA...SASKATCHEWAN AND ONTARIO ***
                ***ONTARIO***

CITY           SKY/WX    TMP DP  RH WIND       PRES   REMARKS
GERALDTON      TSTM      63  63 100 VRB2      29.90S FOG
THUNDER BAY    TSTM      63  63 100 VRB3      29.84R
SIOUX LOOKOUT  PTCLDY    61  59  94 CALM      29.73F
TORONTO        CLEAR     64  52  63 VRB2      30.07R
BIG TROUT LK   LGT RAIN  48  48 100 NE5       29.96F
PICKLE LAKE    NOT AVBL
DRYDEN         PTCLDY    64  63  94 S5        29.73R
KENORA         CLOUDY    54  54 100 N7        29.77R FOG
$$
                *** MANITOBA***

CITY           SKY/WX    TMP DP  RH WIND       PRES   REMARKS
BRANDON        CLOUDY    46  45  93 NW6       30.02R
DAUPHIN        CLOUDY    46  45  93 NW7       30.04R
ISLAND LAKE    CLOUDY    46  45  93 N8        30.01R
PILOT MOUND      N/A     46  43  87 N7          N/A
THE PAS        LGT RAIN  45  43  93 SE3       30.06R
THOMPSON       CLOUDY    41  39  93 NE9       30.10
WINNIPEG       LGT RAIN  50  46  87 NW17G24   29.93R
LYNN LAKE      LGT RAIN  37  37 100 NE6       30.14S
CHURCHILL      CLOUDY    41  34  75 NE14      30.18R
GILLAM         CLOUDY    39  37  93 NE13      30.11
$$
                ***SASKATCHEWAN***

CITY           SKY/WX    TMP DP  RH WIND       PRES   REMARKS
ESTEVAN        CLOUDY    43  43 100 NW7       30.07R
KINDERSLEY     CLOUDY    41  39  93 N5        30.06
LLOYDMINSTER   CLOUDY    41  39  93 CALM      30.07F
PRINCE ALBERT  CLOUDY    41  39  93 VRB2      30.09F
REGINA         CLOUDY    41  39  93 W5        30.09R
YORKTON        CLOUDY    39  39 100 W7        30.06S
N. BATTLEFORD  CLOUDY    39  37  93 N2        30.10F
LA RONGE       LGT RAIN  43  43 100 W2        30.10R
SASKATOON      MOCLDY    39  39 100 CALM      30.09S
SWIFT CURRENT    N/A     39  32  75 SW5       30.07R
$$
NOTE: THESE ARE AUTOMATED STATIONS WITH LIMITED QUALITY CONTROL
      "FAIR" INDICATES FEW OR NO CLOUDS BELOW 12,000 FEET WITH NO
      SIGNIFICANT WEATHER AND/OR OBSTRUCTIONS TO VISIBILITY.
      SKY/WX - SKY CONDITION AND SIGNIFICANT WEATHER.
      TMP - AIR TEMPERATURE.    DP   - DEWPOINT TEMPERATURE.
      RH  - RELATIVE HUMIDITY.  PRES - PRESSURE.
      HX  - HEAT INDEX.         WCI  - WIND CHILL INDEX.
$




USA.gov is the U.S. government's official web portal to all federal, state and local government web resources and services.